Location: Antioch Church
(34.9543°N, 88.5145°W)
Time: 07:53:33
(UTC+00:00)

Cosmos 921 Rocket - Pass Details

Date: 11 December 2019
Orbit: 572 x 632 km, 75.8° (Epoch: 21 January)

Event Time Altitude Azimuth Distance (km) Brightness Sun altitude
Rises 00:38:02 0° 340° (NNW) 2,824 6.5 -23.0°
Reaches altitude 10° 00:40:15 10° 337° (NNW) 1,929 5.7 -23.4°
Maximum altitude 00:44:29 61° 257° (WSW) 684 3.4 -24.3°
Drops below altitude 10° 00:48:46 10° 178° (S) 1,953 5.7 -25.1°
Sets 00:51:02 0° 175° (S) 2,863 6.5 -25.6°
